Wind_Speed
8 8 7 8 8 7 6 6 6 6 6 6 6 6 5 5 6 5 6 5 5 4 3 3 3 3 3 2 2 2 1 1 1 2 2 3 4 3 3 3 3 4 4
7 8 7 7 7 7 7 6 5 5 5 5 5 5 4 4 5 5 5 5 4 4 3 3 3 3 3 2 1 1 1 1 1 2 2 3 4 4 3 3 4 4 4
7 7 7 7 6 6 6 5 5 5 4 3 3 3 3 3 4 4 4 4 4 3 3 3 3 3 2 2 2 2 2 1 1 1 2 3 4 5 5 4 4 4 5
8 7 7 6 6 5 5 5 4 4 4 4 4 4 4 3 3 3 3 3 3 3 2 3 2 2 2 2 1 1 1 1 1 0 1 2 3 5 6 5 4 5 6
8 7 7 6 6 5 5 4 4 4 4 4 4 4 4 4 3 3 3 3 3 2 2 2 2 2 1 1 0 0 1 1 0 1 1 2 3 5 5 5 5 4 5
7 7 6 6 6 5 5 5 4 4 4 4 4 3 4 4 4 4 4 3 3 1 1 1 2 2 2 1 0 0 0 0 1 1 2 1 2 3 5 5 5 4 5
7 7 6 6 6 6 6 5 5 5 4 4 4 3 4 4 4 4 3 3 3 2 1 1 1 1 1 1 1 0 0 0 1 2 2 2 2 2 3 4 5 5 5
8 8 7 7 7 6 6 5 5 5 4 4 4 4 4 3 3 3 3 3 3 2 2 1 1 1 2 1 1 1 0 0 1 2 2 2 2 2 3 4 4 4 4
9 8 8 7 7 7 6 5 5 5 5 5 4 4 4 3 3 3 2 3 2 2 2 1 0 1 1 2 1 0 0 1 1 2 3 3 3 3 3 4 3 3 3
8 8 8 7 7 7 6 6 6 6 6 5 5 4 4 4 4 3 3 2 1 2 2 2 1 1 1 1 1 1 1 1 2 2 2 2 2 3 3 3 3 3 2
9 8 8 7 7 6 6 6 6 7 6 5 5 4 4 4 3 3 3 2 2 2 1 2 1 1 1 1 2 2 2 2 2 2 2 2 3 3 4 3 3 3 3
10 9 8 8 8 7 7 7 7 7 6 5 5 5 4 3 3 3 3 3 2 2 1 1 1 2 1 2 2 2 3 3 3 2 2 3 4 4 4 4 4 4 4
10 9 9 9 8 8 8 7 7 7 7 7 6 5 4 4 4 3 3 3 2 2 1 1 1 2 2 2 2 2 3 3 4 3 3 3 4 4 5 5 5 5 5
10 10 10 10 9 9 8 7 7 7 7 7 6 5 5 4 4 3 3 3 3 2 2 2 2 3 3 3 3 4 5 4 4 3 3 4 4 4 5 5 5 5 6
9 10 10 10 10 10 9 8 7 7 8 7 6 6 6 5 5 4 3 2 2 2 2 2 4 4 4 3 4 5 5 4 5 5 5 5 5 6 6 6 7 7 7
9 9 10 9 9 9 9 9 8 8 8 8 7 6 5 5 5 5 4 3 3 3 3 4 5 5 5 5 5 5 6 5 6 6 6 5 6 7 7 7 8 8 8
9 8 9 9 9 9 9 8 8 7 7 7 7 6 5 5 5 5 5 4 4 4 4 5 5 5 6 7 7 7 7 7 8 8 7 7 7 8 8 8 9 8 8
9 8 9 9 9 9 9 8 8 7 8 7 7 7 6 5 6 5 6 5 5 5 5 5 5 6 6 7 8 8 8 9 9 8 8 8 8 9 9 9 9 8 8
9 9 8 9 9 9 8 8 8 8 8 8 7 7 6 6 7 7 6 6 6 5 5 5 6 6 7 8 8 8 8 9 9 10 9 9 9 9 9 9 9 9 9
9 8 8 9 9 9 8 8 8 8 9 9 8 8 8 7 6 6 6 6 6 6 6 6 6 7 8 8 8 8 8 8 8 9 10 11 11 10 10 10 10 10 10
9 9 8 9 9 9 8 8 8 8 8 9 9 9 9 8 7 7 6 7 7 7 7 7 7 7 8 8 8 8 9 9 8 9 9 10 11 11 11 11 11 11 12
9 9 9 9 9 9 8 8 7 8 9 9 10 10 9 9 8 8 8 9 8 8 8 7 7 8 8 9 9 9 9 9 9 9 9 10 11 12 12 12 12 11 12
8 8 8 8 8 8 8 8 8 8 9 10 10 10 10 9 8 8 8 8 9 9 8 8 8 9 9 10 10 9 9 9 9 9 10 11 12 12 13 13 13 13 13
8 7 7 7 7 7 8 8 8 9 9 10 10 10 9 9 9 9 8 8 9 9 9 9 10 10 10 10 11 11 11 10 10 10 11 12 12 13 13 14 14 14 15
7 7 7 7 6 7 7 8 8 9 9 10 10 10 9 9 9 8 9 8 9 9 9 10 10 10 11 11 12 12 12 12 11 11 12 13 13 13 14 14 15 15 15
7 7 7 7 6 7 7 8 8 9 9 9 9 10 10 10 9 8 9 9 9 10 10 11 12 12 12 12 13 13 14 13 13 13 13 14 14 15 15 15 16 15 15
Wind_Direction
59 66 73 79 82 83 87 96 104 106 107 110 117 115 112 123 128 139 143 151 152 140 133 134 132 136 139 152 146 128 122 197 209 213 209 204 204 200 206 214 214 218 227
62 66 69 77 83 85 86 94 98 108 110 109 114 110 106 116 125 125 128 146 153 147 139 130 130 132 132 138 115 107 105 191 211 206 203 212 210 211 217 225 227 233 237
58 64 71 79 84 85 84 88 99 101 108 120 119 115 111 115 116 113 118 136 145 146 143 134 129 131 138 136 124 87 91 138 173 176 210 227 221 223 223 234 245 246 242
57 64 74 81 82 83 87 89 95 95 101 104 102 115 119 118 119 107 94 127 140 146 148 149 139 145 145 139 127 107 103 111 103 94 254 246 229 226 231 237 246 249 248
60 68 76 80 80 80 81 88 94 97 103 101 96 95 97 100 102 103 92 112 134 156 172 172 164 153 146 159 160 136 154 150 202 304 281 254 225 217 227 233 240 250 249
61 69 78 80 78 77 79 84 92 94 98 99 96 90 91 98 99 90 83 84 74 106 169 187 179 183 178 195 224 42 240 51 300 302 303 244 210 220 229 235 239 244 252
62 68 76 82 80 79 80 83 90 93 95 98 94 92 95 99 104 99 88 75 63 65 127 135 144 156 163 175 197 258 277 323 322 311 317 270 230 227 234 235 239 243 253
69 75 79 83 78 75 78 79 82 91 93 94 93 85 89 98 105 96 86 69 66 63 84 120 134 178 138 115 156 127 162 265 317 325 330 302 247 245 254 243 247 251 254
71 75 80 81 75 74 76 76 80 85 85 83 83 83 80 88 86 80 80 69 63 65 72 86 108 183 87 61 64 124 1 343 334 326 314 296 268 268 269 261 259 265 252
69 74 81 86 80 75 70 74 76 72 70 67 67 71 70 65 58 57 59 53 48 47 56 69 74 109 72 33 16 356 328 322 313 307 312 323 305 284 275 271 260 270 278
68 72 79 82 79 74 65 67 70 66 66 64 64 66 63 54 44 39 38 24 15 5 29 48 61 26 36 19 3 350 339 331 311 298 305 319 313 295 293 281 262 274 277
65 67 77 79 77 74 73 69 65 63 64 66 63 61 54 40 30 22 20 14 357 348 344 7 1 1 358 350 346 353 344 341 327 299 302 302 294 289 286 284 273 266 262
62 67 74 76 75 72 71 69 62 59 58 56 52 47 36 26 18 11 3 1 358 358 337 338 335 324 321 321 333 341 336 329 322 308 292 293 288 293 286 285 278 272 269
63 65 68 68 66 65 65 65 64 61 56 50 43 34 28 22 14 8 359 354 357 358 344 337 326 308 307 312 311 313 316 315 316 315 311 306 308 306 302 293 284 274 277
61 63 65 62 60 61 62 64 65 61 55 48 39 31 25 20 17 9 358 349 347 348 346 341 329 320 320 321 314 305 302 305 299 301 306 310 315 318 305 298 294 282 281
65 65 63 60 56 56 57 60 63 58 51 44 34 29 25 15 6 358 354 339 330 325 321 321 319 318 322 322 310 304 302 303 298 295 303 308 307 308 308 306 303 295 284
66 64 60 57 54 52 53 54 55 50 43 37 31 29 25 22 12 2 352 339 329 323 315 317 317 319 317 315 309 300 301 299 303 297 304 307 304 303 306 303 306 297 291
62 60 57 51 47 46 48 47 43 41 37 32 27 25 23 18 11 11 3 350 338 330 322 322 324 323 322 317 313 308 304 302 297 295 294 298 299 299 299 299 299 295 282
54 53 48 43 40 42 45 42 40 38 33 31 28 25 18 13 16 12 1 355 355 348 341 337 332 328 326 324 321 322 314 305 297 296 290 291 294 294 293 291 289 286 278
49 45 42 39 38 40 41 40 39 34 28 23 19 17 13 8 8 6 3 359 2 3 355 344 335 331 329 328 327 333 332 320 308 300 296 292 293 295 292 290 285 284 281
44 42 37 34 32 33 36 35 30 25 20 15 10 8 5 2 358 359 2 5 5 1 352 345 338 334 334 332 329 333 330 322 315 307 297 293 292 295 295 293 290 288 285
41 40 34 29 26 24 27 27 24 19 15 10 4 2 0 357 359 4 7 7 3 354 347 339 334 331 329 329 324 324 321 317 311 307 300 298 299 295 294 293 292 290 287
36 35 28 21 20 21 20 22 20 14 9 5 2 360 0 5 5 2 2 4 1 355 349 343 337 332 330 328 324 326 326 321 314 310 307 304 302 300 295 294 293 289 288
29 27 21 18 22 20 17 13 11 8 2 359 358 359 2 4 1 359 358 356 352 348 342 339 335 330 327 328 325 324 325 319 316 310 308 307 306 302 299 298 295 292 290
15 14 13 12 13 11 11 6 359 354 354 356 359 2 0 357 354 354 353 350 345 341 338 336 335 330 325 326 326 324 322 316 312 310 306 305 305 303 299 297 295 293 292
359 357 2 359 4 3 2 357 353 351 352 357 357 354 351 350 348 345 345 345 342 337 333 333 332 331 326 325 324 323 322 317 312 308 305 303 302 302 300 297 295 294 293
Height
5890 5888 5888 5888 5889 5889 5889 5889 5889 5889 5890 5890 5890 5891 5891 5892 5892 5893 5893 5894 5894 5894 5895 5895 5895 5895 5895 5895 5895 5895 5895 5894 5894 5894 5894 5894 5894 5894 5894 5894 5894 5894 5894
5890 5890 5889 5890 5890 5890 5890 5890 5890 5891 5891 5891 5891 5892 5892 5893 5893 5893 5894 5895 5895 5895 5895 5895 5896 5895 5895 5895 5895 5895 5895 5895 5894 5894 5894 5894 5894 5894 5894 5894 5894 5893 5893
5891 5891 5891 5891 5891 5891 5891 5891 5891 5892 5892 5892 5892 5893 5893 5894 5894 5894 5895 5895 5895 5895 5895 5896 5896 5896 5896 5896 5895 5895 5895 5895 5894 5894 5894 5894 5893 5893 5893 5893 5893 5893 5892
5892 5892 5892 5892 5892 5892 5892 5893 5893 5893 5893 5893 5893 5894 5894 5894 5895 5895 5895 5895 5895 5895 5896 5896 5896 5896 5896 5896 5895 5895 5895 5894 5894 5894 5893 5893 5892 5892 5892 5892 5892 5892 5892
5893 5893 5893 5893 5893 5893 5893 5893 5894 5894 5893 5894 5894 5894 5895 5895 5895 5895 5896 5896 5895 5895 5896 5896 5896 5896 5896 5896 5895 5895 5895 5894 5894 5893 5893 5892 5891 5891 5892 5891 5891 5891 5891
5894 5894 5894 5894 5894 5894 5894 5894 5894 5894 5895 5895 5895 5895 5895 5895 5896 5896 5896 5896 5896 5895 5896 5896 5896 5896 5896 5895 5895 5895 5894 5894 5894 5893 5892 5891 5891 5891 5890 5890 5891 5890 5890
5895 5895 5895 5895 5895 5895 5895 5895 5895 5895 5895 5895 5895 5896 5896 5896 5896 5896 5896 5896 5896 5895 5895 5895 5895 5895 5895 5895 5895 5895 5894 5894 5893 5892 5892 5891 5890 5890 5890 5889 5889 5889 5889
5897 5896 5896 5896 5896 5896 5896 5896 5896 5896 5896 5896 5896 5896 5896 5897 5897 5897 5896 5896 5896 5895 5895 5895 5895 5895 5895 5895 5895 5894 5894 5893 5892 5892 5891 5890 5890 5889 5889 5889 5888 5888 5888
5898 5898 5898 5897 5897 5897 5897 5897 5896 5897 5897 5897 5897 5897 5897 5897 5897 5897 5896 5896 5896 5895 5895 5895 5895 5895 5895 5895 5894 5894 5893 5893 5892 5891 5890 5889 5889 5889 5888 5888 5887 5887 5886
5899 5899 5899 5899 5898 5898 5898 5898 5898 5898 5897 5897 5898 5898 5898 5897 5897 5897 5897 5896 5896 5896 5895 5895 5895 5895 5895 5895 5894 5893 5892 5892 5891 5890 5890 5889 5888 5888 5888 5887 5886 5886 5886
5900 5900 5900 5900 5899 5899 5899 5899 5899 5898 5898 5898 5898 5898 5898 5898 5898 5897 5897 5896 5896 5896 5895 5895 5895 5895 5895 5894 5893 5892 5892 5891 5890 5890 5889 5889 5888 5887 5887 5886 5885 5885 5885
5901 5901 5901 5901 5900 5900 5900 5900 5900 5899 5899 5899 5899 5898 5898 5898 5898 5897 5897 5896 5896 5895 5895 5895 5895 5894 5894 5893 5893 5892 5891 5890 5890 5889 5888 5888 5887 5886 5886 5885 5884 5884 5883
5903 5902 5901 5902 5902 5901 5901 5901 5901 5900 5899 5899 5899 5899 5898 5898 5897 5897 5896 5896 5895 5895 5894 5894 5894 5894 5893 5893 5892 5891 5891 5890 5889 5888 5887 5887 5886 5885 5884 5883 5882 5882 5882
5904 5904 5904 5903 5903 5902 5902 5902 5901 5901 5899 5899 5899 5899 5898 5898 5897 5897 5896 5895 5895 5894 5894 5894 5893 5893 5893 5892 5891 5891 5890 5889 5888 5887 5887 5886 5885 5884 5883 5882 5881 5881 5880
5905 5905 5905 5904 5904 5903 5903 5902 5902 5902 5901 5900 5900 5899 5898 5897 5897 5896 5895 5894 5894 5894 5893 5893 5893 5892 5891 5891 5890 5890 5889 5888 5887 5886 5885 5885 5883 5883 5881 5881 5880 5879 5878
5906 5906 5906 5906 5905 5904 5904 5903 5902 5902 5902 5900 5900 5899 5898 5897 5896 5895 5894 5894 5893 5893 5892 5892 5892 5891 5890 5889 5889 5888 5888 5886 5886 5885 5884 5883 5882 5881 5880 5879 5878 5877 5876
5908 5908 5907 5907 5906 5905 5904 5904 5903 5903 5902 5901 5900 5899 5897 5896 5895 5894 5893 5893 5892 5892 5891 5891 5890 5890 5889 5888 5887 5886 5885 5885 5884 5883 5882 5881 5880 5879 5878 5877 5876 5875 5874
5909 5908 5908 5908 5907 5906 5905 5904 5904 5903 5902 5901 5900 5898 5897 5896 5895 5894 5893 5892 5891 5891 5890 5889 5889 5888 5887 5886 5885 5884 5883 5882 5881 5880 5879 5879 5878 5877 5876 5875 5874 5873 5871
5910 5909 5909 5908 5907 5906 5905 5905 5904 5903 5902 5901 5900 5898 5897 5895 5894 5893 5892 5891 5890 5889 5888 5887 5887 5886 5885 5884 5883 5882 5881 5879 5879 5878 5877 5876 5875 5874 5874 5872 5871 5870 5869
5911 5911 5910 5909 5908 5907 5906 5905 5904 5903 5902 5901 5900 5898 5896 5895 5893 5892 5891 5890 5889 5888 5887 5886 5885 5884 5884 5883 5882 5880 5879 5877 5877 5875 5875 5874 5873 5872 5871 5870 5868 5867 5866
5913 5912 5911 5910 5909 5908 5907 5906 5905 5904 5902 5901 5900 5898 5896 5894 5893 5891 5890 5889 5888 5887 5886 5884 5884 5883 5882 5881 5880 5878 5876 5875 5874 5873 5872 5871 5870 5869 5867 5866 5865 5864 5863
5913 5913 5912 5911 5910 5909 5908 5907 5906 5904 5902 5901 5899 5897 5895 5893 5892 5890 5889 5887 5886 5885 5884 5883 5882 5881 5880 5879 5878 5876 5875 5873 5871 5870 5869 5868 5866 5865 5864 5863 5862 5861 5860
5914 5913 5913 5912 5911 5909 5908 5907 5906 5904 5902 5901 5899 5897 5895 5893 5891 5889 5887 5886 5885 5884 5883 5881 5880 5879 5878 5877 5875 5874 5872 5871 5869 5868 5866 5865 5863 5862 5861 5860 5858 5857 5856
5915 5914 5913 5912 5911 5910 5908 5907 5906 5904 5902 5901 5898 5896 5894 5892 5890 5888 5886 5885 5884 5883 5882 5880 5879 5877 5876 5874 5873 5871 5870 5868 5867 5866 5864 5862 5860 5859 5858 5856 5855 5853 5852
5916 5914 5913 5911 5911 5909 5908 5907 5905 5904 5902 5900 5897 5895 5893 5891 5889 5887 5886 5884 5883 5882 5880 5879 5877 5876 5874 5872 5871 5869 5867 5865 5864 5863 5861 5859 5857 5856 5854 5852 5850 5849 5847
5916 5914 5913 5911 5910 5909 5907 5906 5905 5903 5901 5899 5897 5894 5892 5890 5888 5886 5885 5883 5882 5880 5878 5877 5875 5873 5872 5870 5868 5866 5864 5862 5860 5859 5857 5855 5854 5852 5850 5848 5846 5844 5843